Waarnemingen

Advertentie
Mijn weer
Perpignan, Frankrijk (7747): temperatuur & dauwpunt: 13.09.2019 06:00:00 - 19.09.2019 06:00:00 (CEST)Perpignan, Frankrijk (7747): temperatuur 5cm: 13.09.2019 06:00:00 - 19.09.2019 06:00:00 (CEST)Perpignan, Frankrijk (7747): temperatuur -20cm & temperatuur -100cm: 13.09.2019 06:00:00 - 19.09.2019 06:00:00 (CEST)Perpignan, Frankrijk (7747): windsnelheid & windstoten: 13.09.2019 06:00:00 - 19.09.2019 06:00:00 (CEST)Perpignan, Frankrijk (7747): windrichting: 13.09.2019 06:00:00 - 19.09.2019 06:00:00 (CEST)Perpignan, Frankrijk (7747): luchtdruk: 13.09.2019 06:00:00 - 19.09.2019 06:00:00 (CEST)Perpignan, Frankrijk (7747): zicht: 13.09.2019 06:00:00 - 19.09.2019 06:00:00 (CEST)Perpignan, Frankrijk (7747): neerslag: 13.09.2019 06:00:00 - 19.09.2019 06:00:00 (CEST)
Datum & Tijd tt [°C] td [°C] tt 5cm [°C] tt -20cm [°C] tt -100cm [°C] ff [km/u] ff [kn] fx [km/u] fx [kn] dd ppp [hPa] vv [km] rr [mm]
19.09.2019 06:00:00 19,1 16,7 18,0 25,5 24,8 6 4 13 7 ZW 1016,7 59 0,0
19.09.2019 05:00:00 18,9 16,9 16,4 25,6 24,8 6 3 10 6 NNO 1016,7 59 0,0
19.09.2019 04:00:00 18,9 16,1 16,5 25,8 24,8 4 2 16 9 OZO 1016,6 59 0,0
19.09.2019 03:00:00 21,2 14,6 18,2 26,0 24,8 8 4 27 15 NNW 1017,0 60 0,0
19.09.2019 02:00:00 21,3 14,9 19,2 26,2 24,8 16 9 27 14 W 1017,2 60 0,0
19.09.2019 01:00:00 21,5 14,6 19,5 26,3 24,8 9 5 24 13 WZW 1017,8 60 0,0
19.09.2019 00:00:00 21,9 16,0 20,8 26,5 24,8 7 4 13 7 W 1018,1 58 0,0
18.09.2019 23:00:00 21,8 15,6 20,7 26,6 24,8 3 2 22 12 NNO 1017,3 56 0,0
18.09.2019 22:00:00 22,2 15,8 21,6 26,8 24,8 14 8 46 25 NNO 1017,4 56 0,0
18.09.2019 21:00:00 22,7 14,8 21,6 26,8 24,8 10 6 19 11 NO 1016,0 60 0,0
18.09.2019 20:00:00 24,0 15,0 23,4 26,9 24,8 13 7 23 13 N 1015,2 59 0,0
18.09.2019 19:00:00 25,7 13,2 25,4 26,8 24,8 8 4 16 8 OZO 1014,5 59 0,0
18.09.2019 18:00:00 26,6 13,7 26,8 26,6 24,8 8 4 15 8 Z 1014,9 60 0,0
18.09.2019 17:00:00 27,1 14,1 28,4 26,4 24,8 11 6 20 11 OZO 1014,6 53 0,0
18.09.2019 16:00:00 28,1 12,4 29,3 26,0 24,8 11 6 21 11 ZO 1015,0 59 0,0
18.09.2019 15:00:00 29,2 13,0 32,6 25,6 24,8 10 6 21 11 ZO 1015,2 60 0,0
18.09.2019 14:00:00 29,1 12,5 35,6 25,2 24,8 11 6 23 12 ZO 1015,4 60 0,0
18.09.2019 13:00:00 28,4 13,1 30,5 25,0 24,8 10 5 16 9 OZO 1015,8 60 0,0
18.09.2019 12:00:00 28,2 13,7 31,1 24,8 24,8 7 4 17 9 ZO 1015,9 54 0,0
18.09.2019 11:00:00 27,2 13,9 31,7 24,8 24,8 7 4 12 6 O 1015,8 43 0,0
18.09.2019 10:00:00 24,4 17,1 23,1 24,9 24,8 3 2 8 4 ZW 1015,6 34 0,0
18.09.2019 09:00:00 20,9 17,7 19,1 25,1 24,8 5 3 9 5 WZW 1015,2 25 0,0
18.09.2019 08:00:00 19,6 17,4 17,7 25,2 24,7 8 4 12 7 W 1014,9 23 0,0
18.09.2019 07:00:00 19,8 17,9 18,1 25,3 24,7 10 5 16 9 W 1014,6 21 0,0
18.09.2019 06:00:00 19,9 18,4 18,2 25,5 24,7 5 3 9 5 W 1014,1 19 0,0
18.09.2019 05:00:00 20,1 18,6 17,5 25,7 24,7 6 3 9 5 WZW 1014,4 14 0,0
18.09.2019 04:00:00 20,8 18,9 19,9 25,8 24,7 6 4 16 9 ONO 1014,0 17 0,0
18.09.2019 03:00:00 21,6 18,2 20,2 26,0 24,7 8 4 16 9 ONO 1014,2 26 0,0
18.09.2019 02:00:00 23,7 16,5 20,9 26,2 24,7 3 2 14 8 NNW 1014,0 45 0,0
18.09.2019 01:00:00 23,1 16,2 21,3 26,4 24,7 9 5 19 10 WZW 1013,9 43 0,0
18.09.2019 00:00:00 23,1 16,9 20,9 26,5 24,7 11 6 16 9 WZW 1014,1 45 0,0
17.09.2019 23:00:00 22,8 16,3 19,6 26,7 24,8 10 5 17 9 WZW 1013,9 45 0,0
17.09.2019 22:00:00 22,4 17,3 18,8 26,9 24,7 9 5 16 9 W 1013,8 36 0,0
17.09.2019 21:00:00 23,9 16,9 20,5 26,9 24,7 3 2 6 4 NNO 1013,6 34 0,0
17.09.2019 20:00:00 26,1 16,6 22,8 26,9 24,7 3 2 8 5 ZO 1013,3 45 0,0
17.09.2019 19:00:00 27,5 16,5 27,7 26,7 24,7 5 3 12 7 ZO 1013,5 50 0,0
17.09.2019 18:00:00 29,6 15,7 32,4 26,5 24,7 8 4 16 8 OZO 1013,7 52 0,0
17.09.2019 17:00:00 30,4 15,3 34,4 26,1 24,7 10 5 18 10 O 1014,1 53 0,0
17.09.2019 16:00:00 30,7 15,9 35,0 25,6 24,7 9 5 19 10 O 1014,7 51 0,0
17.09.2019 15:00:00 30,6 16,2 34,4 25,2 24,7 9 5 22 12 O 1015,3 45 0,0
17.09.2019 14:00:00 29,6 17,4 35,8 24,7 24,7 11 6 21 12 O 1015,8 60 0,0
17.09.2019 13:00:00 29,1 18,2 35,8 24,4 24,7 12 6 21 12 O 1016,2 20 0,0
17.09.2019 12:00:00 28,7 18,2 34,5 24,2 24,7 8 4 14 7 O 1016,7 45 0,0
17.09.2019 11:00:00 27,7 17,8 33,6 24,1 24,7 3 2 8 4 O 1017,0 32 0,0
17.09.2019 10:00:00 25,2 17,9 27,0 24,2 24,7 3 2 6 3 NNO 1017,0 41 0,0
17.09.2019 09:00:00 22,3 17,7 18,3 24,3 24,7 4 2 6 4 NNO 1016,6 30 0,0
17.09.2019 08:00:00 20,0 16,4 16,2 24,5 24,7 4 2 6 3 NNW 1016,4 36 0,0
17.09.2019 07:00:00 19,9 16,5 16,5 24,6 24,7 0 0 9 5 N 1016,1 32 0,0
17.09.2019 06:00:00 20,1 16,7 17,9 24,8 24,7 9 5 11 6 ZZW 1016,1 31 0,0
17.09.2019 05:00:00 20,7 16,7 18,9 24,9 24,7 11 6 17 9 ZW 1016,1 32 0,0
17.09.2019 04:00:00 20,6 17,0 18,7 25,1 24,7 14 8 20 11 WZW 1016,5 28 0,0
17.09.2019 03:00:00 20,1 17,3 17,1 25,3 24,7 11 6 16 9 WZW 1017,2 28 0,0
17.09.2019 02:00:00 19,3 17,8 17,0 25,5 24,7 4 2 6 4 W 1017,6 16 0,0
17.09.2019 01:00:00 19,6 18,1 17,1 25,6 24,7 3 1 11 6 WZW 1017,9 16 0,0
17.09.2019 00:00:00 19,4 17,9 17,1 25,9 24,7 4 2 5 3 W 1018,0 17 0,0
16.09.2019 23:00:00 20,3 18,6 17,7 26,0 24,7 4 2 6 3 NO 1018,0 9 0,0
16.09.2019 22:00:00 20,8 18,2 18,4 26,1 24,7 7 4 9 5 NO 1017,9 16 0,0
16.09.2019 21:00:00 21,8 18,0 19,3 26,2 24,7 2 1 5 3 NO 1017,7 25 0,0
16.09.2019 20:00:00 22,6 17,7 21,8 26,2 24,7 6 3 11 6 O 1017,4 37 0,0
16.09.2019 19:00:00 24,3 17,3 25,3 26,1 24,7 11 6 16 9 NO 1017,3 45 0,0
16.09.2019 18:00:00 25,2 16,6 29,2 25,8 24,7 11 6 20 11 ONO 1017,3 43 0,0
16.09.2019 17:00:00 26,0 16,8 30,3 25,5 24,7 13 7 23 12 O 1017,6 43 0,0
16.09.2019 16:00:00 26,7 16,3 30,6 25,0 24,7 14 7 23 12 O 1017,8 51 0,0
16.09.2019 15:00:00 27,1 14,8 30,7 24,6 24,7 16 9 26 14 OZO 1018,4 50 0,0
16.09.2019 14:00:00 27,8 15,8 33,7 24,1 24,7 13 7 23 12 O 1019,1 50 0,0
16.09.2019 13:00:00 26,9 17,7 34,2 23,8 24,7 11 6 19 10 O 1019,7 31 0,0
16.09.2019 12:00:00 26,3 15,7 33,5 23,5 24,7 4 2 13 7 ONO 1020,2 59 0,0
16.09.2019 11:00:00 24,1 15,6 31,6 23,5 24,7 3 2 7 4 NNO 1020,5 43 0,0
16.09.2019 10:00:00 21,9 16,8 25,4 23,6 24,7 2 1 5 3 WNW 1020,5 37 0,0
16.09.2019 09:00:00 18,6 16,7 16,5 23,7 24,7 3 2 8 5 W 1020,5 21 0,0
16.09.2019 08:00:00 16,4 15,3 14,0 23,9 24,7 4 2 5 3 WZW 1020,4 20 0,0
16.09.2019 07:00:00 16,5 15,0 14,1 24,0 24,7 4 2 6 3 N 1020,3 22 0,0
16.09.2019 06:00:00 16,7 15,4 14,5 24,2 24,7 3 2 9 5 ZW 1020,2 25 0,0
16.09.2019 05:00:00 16,7 15,2 14,5 24,4 24,7 6 3 8 4 W 1020,4 23 0,0
16.09.2019 04:00:00 16,9 15,6 14,6 24,6 24,7 3 2 7 4 W 1020,7 21 0,0
16.09.2019 03:00:00 17,4 15,9 14,8 24,8 24,7 0 0 5 3 N 1021,1 22 0,0
16.09.2019 02:00:00 17,8 16,1 15,1 25,1 24,7 5 3 6 3 W 1021,3 22 0,0
16.09.2019 01:00:00 18,1 15,9 15,6 25,2 24,7 5 3 6 3 WZW 1021,4 27 0,0
16.09.2019 00:00:00 18,8 15,1 16,0 25,5 24,7 2 1 8 4 WNW 1021,5 38 0,0
15.09.2019 23:00:00 19,6 15,3 16,9 25,6 24,7 4 2 8 4 NW 1021,6 40 0,0
15.09.2019 22:00:00 20,3 15,9 18,3 25,8 24,7 5 3 10 5 NNW 1021,4 35 0,0
15.09.2019 21:00:00 20,7 17,3 19,3 25,9 24,7 5 3 10 5 NNO 1021,4 24 0,0
15.09.2019 20:00:00 21,7 17,3 21,2 25,9 24,7 9 5 17 9 ONO 1021,2 26 0,0
15.09.2019 19:00:00 23,2 17,0 24,6 25,8 24,8 11 6 22 12 ONO 1021,5 37 0,0
15.09.2019 18:00:00 24,5 16,5 22,9 25,6 24,7 14 7 22 12 O 1021,7 39 0,0
15.09.2019 17:00:00 23,7 17,2 23,8 25,3 24,7 18 10 24 13 O 1022,0 36 0,0
15.09.2019 16:00:00 25,5 17,2 29,0 25,0 24,7 15 8 25 14 ONO 1022,5 43 0,0
15.09.2019 15:00:00 25,9 15,9 29,0 24,6 24,7 16 9 26 14 O 1022,9 44 0,0
15.09.2019 14:00:00 26,0 16,5 32,1 24,2 24,7 16 9 27 14 O 1023,5 46 0,0
15.09.2019 13:00:00 25,9 17,3 31,5 23,8 24,7 14 8 22 12 O 1023,8 39 0,0
15.09.2019 12:00:00 24,8 18,3 31,7 23,7 24,7 8 5 16 9 O 1024,4 34 0,0
15.09.2019 11:00:00 23,5 18,4 28,0 23,6 24,7 4 2 12 6 O 1024,5 20 0,0
15.09.2019 10:00:00 21,5 18,3 23,8 23,6 24,7 3 2 6 3 NO 1024,7 16 0,0
15.09.2019 09:00:00 18,7 17,7 17,0 23,8 24,7 4 2 8 4 N 1024,2 10 0,0
15.09.2019 08:00:00 17,5 16,9 15,8 24,0 24,7 8 4 13 7 ZW 1024,4 8 0,0
15.09.2019 07:00:00 18,1 17,5 17,1 24,1 24,7 4 2 7 4 N 1023,7 3,3 0,2
15.09.2019 06:00:00 18,4 17,4 17,8 24,2 24,7 6 3 16 9 ZW 1023,8 7 0,0
15.09.2019 05:00:00 18,3 17,3 16,7 24,4 24,7 4 2 11 6 WNW 1024,1 8 0,6
15.09.2019 04:00:00 17,6 15,8 15,3 24,6 24,7 4 2 17 9 WZW 1025,1 23 0,0
15.09.2019 03:00:00 17,5 16,2 15,8 24,8 24,7 5 3 8 4 N 1024,3 10 0,0
15.09.2019 02:00:00 17,5 16,0 15,3 25,0 24,7 2 1 10 5 N 1025,2 17 0,0
15.09.2019 01:00:00 18,0 16,3 15,1 25,2 24,7 0 0 4 2 N 1024,9 16 0,0
15.09.2019 00:00:00 18,6 16,7 16,3 25,4 24,7 3 2 13 7 W 1025,2 16 0,0
14.09.2019 23:00:00 19,3 16,7 16,4 25,6 24,7 5 3 8 5 WZW 1025,4 15 0,0
14.09.2019 22:00:00 20,6 16,8 18,9 25,7 24,7 5 3 11 6 NNW 1025,5 16 0,0
14.09.2019 21:00:00 21,2 17,4 20,6 25,8 24,7 5 3 11 6 N 1025,5 19 0,0
14.09.2019 20:00:00 22,1 17,2 21,1 25,8 24,8 8 4 10 6 NO 1025,3 28 0,0
14.09.2019 19:00:00 23,7 16,0 24,2 25,7 24,7 9 5 17 9 O 1024,7 32 0,0
14.09.2019 18:00:00 25,1 13,6 26,0 25,5 24,8 14 8 22 12 O 1024,6 58 0,0
14.09.2019 17:00:00 27,1 12,7 29,1 25,1 24,8 13 7 22 12 O 1024,6 55 0,0
14.09.2019 16:00:00 28,2 13,3 32,0 24,6 24,8 16 8 25 14 O 1025,0 56 0,0
14.09.2019 15:00:00 28,2 15,1 31,9 24,1 24,8 15 8 24 13 O 1025,7 55 0,0
14.09.2019 14:00:00 27,6 14,9 32,9 23,7 24,8 16 8 26 14 ONO 1026,3 60 0,0
14.09.2019 13:00:00 26,9 14,3 33,5 23,4 24,8 14 8 22 12 O 1027,1 60 0,0
14.09.2019 12:00:00 27,3 12,9 34,2 23,2 24,8 10 6 18 10 O 1027,1 60 0,0
14.09.2019 11:00:00 24,8 14,6 28,5 23,1 24,8 7 4 11 6 NNO 1026,7 9 0,0
14.09.2019 10:00:00 22,1 14,0 20,2 23,1 24,8 6 4 11 6 WNW 1026,5 53 0,0
14.09.2019 09:00:00 18,9 15,2 17,3 23,2 24,8 3 2 14 7 NNW 1026,6 56 0,0
14.09.2019 08:00:00 18,1 15,4 17,0 23,3 24,8 11 6 16 9 ZW 1026,3 32 0,0
14.09.2019 07:00:00 18,6 14,5 17,4 23,4 24,8 11 6 18 10 NNW 1025,9 27 0,0
14.09.2019 06:00:00 18,7 14,2 17,5 23,6 24,8 7 4 12 7 N 1025,7 53 0,0
14.09.2019 05:00:00 18,3 13,8 17,5 23,7 24,8 4 2 11 6 N 1026,3 55 0,0
14.09.2019 04:00:00 18,6 13,7 17,6 23,9 24,8 3 2 13 7 ZZW 1026,8 60 0,0
14.09.2019 03:00:00 18,3 14,2 16,8 24,0 24,8 3 1 8 5 NNW 1026,4 60 0,0
14.09.2019 02:00:00 18,4 14,3 17,2 24,2 24,8 2 1 13 7 W 1027,1 56 0,0
14.09.2019 01:00:00 18,4 14,3 16,0 24,4 24,8 11 6 13 7 WZW 1027,5 50 0,0
14.09.2019 00:00:00 17,6 14,9 15,2 24,6 24,8 5 3 10 6 W 1027,8 40 0,0
13.09.2019 23:00:00 18,3 15,0 15,5 24,7 24,8 4 2 8 4 ZW 1027,8 38 0,0
13.09.2019 22:00:00 19,5 15,4 16,0 24,9 24,8 2 1 5 3 ZZW 1027,7 42 0,0
13.09.2019 21:00:00 20,5 15,3 16,9 25,0 24,8 3 1 8 5 ONO 1027,1 40 0,0
13.09.2019 20:00:00 21,8 13,4 19,0 25,0 24,9 0 0 10 5 N 1026,7 59 0,0
13.09.2019 19:00:00 23,1 14,9 24,1 24,8 24,8 7 4 13 7 NO 1026,7 60 0,0
13.09.2019 18:00:00 24,0 14,1 25,2 24,7 24,9 8 4 15 8 ONO 1026,9 57 0,0
13.09.2019 17:00:00 24,1 14,2 26,0 24,4 24,9 11 6 20 11 ONO 1026,8 59 0,0
13.09.2019 16:00:00 26,3 12,4 28,2 23,9 24,9 15 8 23 12 O 1027,7 20 0,0
13.09.2019 15:00:00 28,3 11,8 32,4 23,4 24,9 11 6 19 11 O 1028,3 20 0,0
13.09.2019 14:00:00 27,9 11,0 32,6 22,9 24,9 7 4 20 11 ONO 1029,4 60 0,0
13.09.2019 13:00:00 27,8 11,4 32,1 22,5 24,9 7 4 19 10 ONO 1029,1 58 0,0
13.09.2019 12:00:00 27,9 10,6 33,9 22,3 24,9 7 4 17 9 ONO 1029,2 54 0,0
13.09.2019 11:00:00 26,2 10,8 33,3 22,3 24,9 4 2 10 5 N 1028,8 51 0,0
13.09.2019 10:00:00 22,9 11,9 29,3 22,3 24,9 5 3 11 6 N 1029,1 20 0,0
13.09.2019 09:00:00 20,0 11,2 18,8 22,5 25,0 4 2 9 5 ZZW 1028,7 59 0,0
13.09.2019 08:00:00 16,6 10,9 13,0 22,6 24,9 2 1 11 6 O 1028,7 58 0,0
13.09.2019 07:00:00 17,3 9,9 12,8 22,9 25,0 12 7 22 12 WZW 1029,0 60 0,0
13.09.2019 06:00:00 16,4 10,7 12,2 23,1 25,0 4 2 12 7 NNW 1028,3 60 0,0

tt = temperatuur
td = dauwpunt
tt 5cm = temperatuur 5cm
tt -20cm = temperatuur -20cm
tt -100cm = temperatuur -100cm
ff = windsnelheid
fx = windstoten
dd = windrichting
ppp = luchtdruk
vv = zicht
rr = neerslag

Weerstations in de omgeving